sat.trackr.live / text

‹ back to catalog

TRANSPORTER-13 OBJECT U

NORAD 63228 · 2025-052U

PAYLOAD ACTIVE UNKNOWN

§ Identity

Operator
Country
TBD
Launch date
2025-03-15
Launch site
AFWTR
Launch vehicle
Mass (kg)
RCS (m²)

External: N2YO · Heavens-Above · Gunter

§ Orbital elements

Epoch: 2026-05-25T04:08:36.858912Z

Period
94.53 min
Inclination
97.3949°
Eccentricity
0.0003806
Mean motion
15.23298571 rev/d
Perigee alt
493.3 km
Apogee alt
498.5 km
Semi-major
6,874.0 km
B*
2.2840e-4
RAAN
38.2733°
Arg perigee
212.3425°
Mean anomaly
147.7579°
Rev number
6,636

§ Raw data

TRANSPORTER-13 OBJECT U1 63228U 25052U   26145.17264883  .00005349  00000+0  22840-3 0  99912 63228  97.3949  38.2733 0003806 212.3425 147.7579 15.23298571 66360

JSON: /api/v1/satellites/63228 · /tle

For live sub-satellite position, see the globe view (requires WebGL).

§ Visibility from observer

Set your observer location to see the next 7 days of passes ≥ 10°. The values pass through the URL so the page stays shareable.

No JS? Fill the form by hand. The geolocation button needs JavaScript.